Powrót do katalogu

FENGYUN 1C DEB

AktywnySSO
NORAD 30526·DEBRIS·🇨🇳 China

Wystrzelony May 10, 1999 z Taiyuan Satellite Launch Center

Loading…

Następne Przeloty (najbliższe 24 godziny)

TLE

ŚwieżeSource: Space-Track

Epoka: Sep 14, 2026, 03:06 UTC

1 30526U 99025AJQ 26257.12959680  .00000922  00000-0  11321-2 0  9996
2 30526  99.5327 333.1924 0305748 295.3196  61.6561 13.50258143963746

Śledź FENGYUN 1C DEB w czasie rzeczywistym z AllMySat

Download on the App Store